Time,TemperatureF,DewpointF,PressureIn,WindDirection,WindDirectionDegrees,WindSpeedMPH,WindSpeedGustMPH,Humidity,HourlyPrecipIn,Conditions,Clouds,dailyrainin,SoftwareType,DateUTC
2013-08-03 00:02:00,59.0,51.0,30.02,North,4,2.0,5.0,76,0.00,,,0.00,,2013-08-03 05:02:00,
2013-08-03 00:12:00,58.0,51.0,30.03,NNW,331,0.0,4.0,78,0.00,,,0.00,,2013-08-03 05:12:00,
2013-08-03 00:22:00,58.0,51.0,30.03,NNW,331,0.0,4.0,78,0.00,,,0.00,,2013-08-03 05:22:00,
2013-08-03 00:32:00,58.0,51.0,30.03,NW,322,1.0,3.0,77,0.00,,,0.00,,2013-08-03 05:32:00,
2013-08-03 00:42:00,58.0,51.0,30.03,NW,309,1.0,5.0,77,0.00,,,0.00,,2013-08-03 05:42:00,
2013-08-03 00:52:00,58.0,51.0,30.03,NW,309,1.0,5.0,77,0.00,,,0.00,,2013-08-03 05:52:00,
2013-08-03 01:02:00,57.0,51.0,30.04,West,280,0.0,2.0,80,0.00,,,0.00,,2013-08-03 06:02:00,
2013-08-03 01:12:00,56.0,51.0,30.04,West,278,1.0,2.0,82,0.00,,,0.00,,2013-08-03 06:12:00,
2013-08-03 01:22:00,56.0,51.0,30.04,West,278,1.0,2.0,82,0.00,,,0.00,,2013-08-03 06:22:00,
2013-08-03 01:32:00,55.0,50.0,30.04,West,280,1.0,2.0,84,0.00,,,0.00,,2013-08-03 06:32:00,
2013-08-03 01:42:00,54.0,50.0,30.05,WNW,284,0.0,3.0,85,0.00,,,0.00,,2013-08-03 06:42:00,
2013-08-03 01:52:00,54.0,50.0,30.05,WNW,284,0.0,3.0,85,0.00,,,0.00,,2013-08-03 06:52:00,
2013-08-03 02:02:00,53.0,50.0,30.05,WNW,301,1.0,2.0,88,0.00,,,0.00,,2013-08-03 07:02:00,
2013-08-03 02:12:00,53.0,49.0,30.05,West,274,0.0,2.0,87,0.00,,,0.00,,2013-08-03 07:12:00,
2013-08-03 02:22:00,53.0,49.0,30.05,West,274,0.0,2.0,87,0.00,,,0.00,,2013-08-03 07:22:00,
2013-08-03 02:32:00,53.0,50.0,30.05,WNW,290,1.0,3.0,88,0.00,,,0.00,,2013-08-03 07:32:00,
2013-08-03 02:43:00,53.0,49.0,30.06,WNW,292,1.0,3.0,87,0.00,,,0.00,,2013-08-03 07:43:00,
2013-08-03 02:52:00,53.0,49.0,30.06,WNW,292,1.0,3.0,87,0.00,,,0.00,,2013-08-03 07:52:00,
2013-08-03 03:02:00,54.0,50.0,30.06,NNW,337,2.0,4.0,87,0.00,,,0.00,,2013-08-03 08:02:00,
2013-08-03 03:22:00,54.0,50.0,30.06,NNW,341,0.0,5.0,85,0.00,,,0.00,,2013-08-03 08:22:00,
2013-08-03 03:32:00,54.0,50.0,30.05,NW,321,0.0,2.0,86,0.00,,,0.00,,2013-08-03 08:32:00,
2013-08-03 03:52:00,54.0,50.0,30.06,North,8,0.0,3.0,86,0.00,,,0.00,,2013-08-03 08:52:00,
2013-08-03 04:02:00,54.0,50.0,30.07,NW,309,0.0,1.0,86,0.00,,,0.00,,2013-08-03 09:02:00,
2013-08-03 04:12:00,54.0,50.0,30.07,NW,319,1.0,3.0,87,0.00,,,0.00,,2013-08-03 09:12:00,
2013-08-03 04:22:00,54.0,50.0,30.07,NW,319,1.0,3.0,87,0.00,,,0.00,,2013-08-03 09:22:00,
2013-08-03 04:32:00,54.0,50.0,30.07,NNW,340,1.0,3.0,87,0.00,,,0.00,,2013-08-03 09:32:00,
2013-08-03 04:43:00,54.0,51.0,30.07,WNW,287,0.0,1.0,88,0.00,,,0.00,,2013-08-03 09:43:00,
2013-08-03 04:53:00,54.0,51.0,30.07,WNW,287,0.0,1.0,88,0.00,,,0.00,,2013-08-03 09:53:00,
2013-08-03 05:02:00,53.0,50.0,30.07,West,278,1.0,1.0,89,0.00,,,0.00,,2013-08-03 10:02:00,
2013-08-03 05:12:00,54.0,51.0,30.07,NNE,15,3.0,5.0,89,0.00,,,0.00,,2013-08-03 10:12:00,
2013-08-03 05:22:00,54.0,51.0,30.07,NNE,15,3.0,5.0,89,0.00,,,0.00,,2013-08-03 10:22:00,
2013-08-03 05:32:00,54.0,51.0,30.07,North,8,2.0,4.0,89,0.00,,,0.00,,2013-08-03 10:32:00,
2013-08-03 05:42:00,54.0,51.0,30.08,NW,308,0.0,3.0,89,0.00,,,0.00,,2013-08-03 10:42:00,
2013-08-03 05:53:00,54.0,51.0,30.08,NW,308,0.0,3.0,89,0.00,,,0.00,,2013-08-03 10:53:00,
2013-08-03 06:02:00,54.0,51.0,30.08,West,278,0.0,2.0,90,0.00,,,0.00,,2013-08-03 11:02:00,
2013-08-03 06:12:00,54.0,51.0,30.10,NW,311,2.0,3.0,90,0.00,,,0.00,,2013-08-03 11:12:00,
2013-08-03 06:22:00,54.0,51.0,30.10,NW,311,2.0,3.0,90,0.00,,,0.00,,2013-08-03 11:22:00,
2013-08-03 06:32:00,54.0,51.0,30.10,WNW,301,1.0,3.0,89,0.00,,,0.00,,2013-08-03 11:32:00,
2013-08-03 06:43:00,54.0,51.0,30.10,NW,316,2.0,5.0,90,0.00,,,0.00,,2013-08-03 11:43:00,
2013-08-03 06:53:00,54.0,51.0,30.10,NW,316,2.0,5.0,90,0.00,,,0.00,,2013-08-03 11:53:00,
2013-08-03 07:02:00,53.0,50.0,30.10,NW,311,0.0,2.0,91,0.00,,,0.00,,2013-08-03 12:02:00,
2013-08-03 07:12:00,53.0,50.0,30.11,WNW,282,1.0,3.0,91,0.00,,,0.00,,2013-08-03 12:12:00,
2013-08-03 07:22:00,53.0,50.0,30.11,WNW,282,1.0,3.0,91,0.00,,,0.00,,2013-08-03 12:22:00,
2013-08-03 07:33:00,53.0,50.0,30.12,NNW,331,2.0,4.0,91,0.00,,,0.00,,2013-08-03 12:33:00,
2013-08-03 07:43:00,53.0,50.0,30.12,NNW,331,2.0,4.0,91,0.00,,,0.00,,2013-08-03 12:43:00,
2013-08-03 07:52:00,53.0,50.0,30.12,NNW,331,2.0,4.0,91,0.00,,,0.00,,2013-08-03 12:52:00,
2013-08-03 08:02:00,54.0,51.0,30.13,NW,316,1.0,5.0,90,0.00,,,0.00,,2013-08-03 13:02:00,
2013-08-03 08:12:00,55.0,52.0,30.13,NNE,32,2.0,4.0,89,0.00,,,0.00,,2013-08-03 13:12:00,
2013-08-03 08:22:00,55.0,52.0,30.13,NNE,32,2.0,4.0,89,0.00,,,0.00,,2013-08-03 13:22:00,
2013-08-03 08:33:00,56.0,52.0,30.14,North,351,0.0,2.0,85,0.00,,,0.00,,2013-08-03 13:33:00,
2013-08-03 08:43:00,57.0,52.0,30.15,NW,309,2.0,4.0,84,0.00,,,0.00,,2013-08-03 13:43:00,
2013-08-03 08:52:00,57.0,52.0,30.15,NW,309,2.0,4.0,84,0.00,,,0.00,,2013-08-03 13:52:00,
2013-08-03 09:02:00,58.0,52.0,30.14,NNW,331,2.0,5.0,80,0.00,,,0.00,,2013-08-03 14:02:00,
2013-08-03 09:12:00,60.0,53.0,30.15,WNW,295,2.0,4.0,77,0.00,,,0.00,,2013-08-03 14:12:00,
2013-08-03 09:22:00,60.0,53.0,30.15,WNW,295,2.0,4.0,77,0.00,,,0.00,,2013-08-03 14:22:00,
2013-08-03 09:32:00,61.0,53.0,30.15,North,356,1.0,4.0,74,0.00,,,0.00,,2013-08-03 14:32:00,
2013-08-03 09:42:00,62.0,53.0,30.15,NNE,15,2.0,5.0,72,0.00,,,0.00,,2013-08-03 14:42:00,
2013-08-03 09:52:00,62.0,53.0,30.15,NNE,15,2.0,5.0,72,0.00,,,0.00,,2013-08-03 14:52:00,
2013-08-03 10:02:00,63.0,53.0,30.16,NNE,16,3.0,6.0,71,0.00,,,0.00,,2013-08-03 15:02:00,
2013-08-03 10:12:00,64.0,54.0,30.15,NNE,22,4.0,7.0,70,0.00,,,0.00,,2013-08-03 15:12:00,
2013-08-03 10:23:00,64.0,54.0,30.15,NNE,22,4.0,7.0,70,0.00,,,0.00,,2013-08-03 15:23:00,
2013-08-03 10:32:00,65.0,55.0,30.16,NE,43,2.0,8.0,70,0.00,,,0.00,,2013-08-03 15:32:00,
2013-08-03 10:53:00,66.0,55.0,30.15,North,11,3.0,7.0,68,0.00,,,0.00,,2013-08-03 15:53:00,
2013-08-03 11:02:00,66.0,54.0,30.16,North,357,4.0,8.0,65,0.00,,,0.00,,2013-08-03 16:02:00,
2013-08-03 11:12:00,67.0,54.0,30.15,NNE,15,3.0,8.0,63,0.00,,,0.00,,2013-08-03 16:12:00,
2013-08-03 11:23:00,67.0,54.0,30.15,NNE,15,3.0,8.0,63,0.00,,,0.00,,2013-08-03 16:23:00,
2013-08-03 11:33:00,67.0,52.0,30.15,NNE,26,5.0,9.0,59,0.00,,,0.00,,2013-08-03 16:33:00,
2013-08-03 11:43:00,68.0,54.0,30.15,North,352,3.0,10.0,60,0.00,,,0.00,,2013-08-03 16:43:00,
2013-08-03 11:53:00,68.0,54.0,30.15,North,352,3.0,10.0,60,0.00,,,0.00,,2013-08-03 16:53:00,
2013-08-03 12:03:00,68.0,53.0,30.15,North,358,4.0,10.0,58,0.00,,,0.00,,2013-08-03 17:03:00,
2013-08-03 12:12:00,69.0,54.0,30.15,North,6,4.0,10.0,58,0.00,,,0.00,,2013-08-03 17:12:00,
2013-08-03 12:22:00,69.0,54.0,30.15,North,6,4.0,10.0,58,0.00,,,0.00,,2013-08-03 17:22:00,
2013-08-03 12:32:00,69.0,52.0,30.15,NE,49,5.0,9.0,54,0.00,,,0.00,,2013-08-03 17:32:00,
2013-08-03 12:43:00,70.0,54.0,30.15,ENE,68,3.0,8.0,57,0.00,,,0.00,,2013-08-03 17:43:00,
2013-08-03 12:52:00,70.0,54.0,30.15,ENE,68,3.0,8.0,57,0.00,,,0.00,,2013-08-03 17:52:00,
2013-08-03 13:02:00,70.0,52.0,30.15,NNW,341,6.0,10.0,53,0.00,,,0.00,,2013-08-03 18:02:00,
2013-08-03 13:12:00,69.0,51.0,30.15,NNE,21,6.0,9.0,53,0.00,,,0.00,,2013-08-03 18:12:00,
2013-08-03 13:22:00,69.0,51.0,30.15,NNE,21,6.0,9.0,53,0.00,,,0.00,,2013-08-03 18:22:00,
2013-08-03 13:32:00,70.0,52.0,30.16,NE,56,4.0,9.0,52,0.00,,,0.00,,2013-08-03 18:32:00,
2013-08-03 13:43:00,70.0,52.0,30.16,NE,56,4.0,9.0,52,0.00,,,0.00,,2013-08-03 18:43:00,
2013-08-03 13:53:00,70.0,48.0,30.15,NNE,30,1.0,5.0,45,0.00,,,0.00,,2013-08-03 18:53:00,
2013-08-03 14:02:00,71.0,49.0,30.15,NNW,338,6.0,12.0,46,0.00,,,0.00,,2013-08-03 19:02:00,
2013-08-03 14:12:00,72.0,48.0,30.15,ENE,62,2.0,8.0,43,0.00,,,0.00,,2013-08-03 19:12:00,
2013-08-03 14:22:00,72.0,48.0,30.15,ENE,62,2.0,8.0,43,0.00,,,0.00,,2013-08-03 19:22:00,
2013-08-03 14:32:00,71.0,47.0,30.15,East,85,3.0,7.0,43,0.00,,,0.00,,2013-08-03 19:32:00,
2013-08-03 14:43:00,72.0,46.0,30.15,WNW,297,4.0,8.0,39,0.00,,,0.00,,2013-08-03 19:43:00,
2013-08-03 14:52:00,72.0,46.0,30.15,WNW,297,4.0,8.0,39,0.00,,,0.00,,2013-08-03 19:52:00,
2013-08-03 15:02:00,72.0,48.0,30.15,NW,319,3.0,8.0,42,0.00,,,0.00,,2013-08-03 20:02:00,
2013-08-03 15:12:00,72.0,48.0,30.15,North,9,3.0,6.0,43,0.00,,,0.00,,2013-08-03 20:12:00,
2013-08-03 15:22:00,72.0,48.0,30.15,North,9,3.0,6.0,43,0.00,,,0.00,,2013-08-03 20:22:00,
2013-08-03 15:32:00,73.0,50.0,30.15,East,91,2.0,5.0,45,0.00,,,0.00,,2013-08-03 20:32:00,
2013-08-03 15:42:00,73.0,49.0,30.15,North,350,5.0,11.0,42,0.00,,,0.00,,2013-08-03 20:42:00,
2013-08-03 15:52:00,73.0,49.0,30.15,North,350,5.0,11.0,42,0.00,,,0.00,,2013-08-03 20:52:00,
2013-08-03 16:02:00,73.0,48.0,30.15,NE,47,3.0,12.0,41,0.00,,,0.00,,2013-08-03 21:02:00,
2013-08-03 16:12:00,71.0,48.0,30.15,NE,53,3.0,11.0,44,0.00,,,0.00,,2013-08-03 21:12:00,
2013-08-03 16:22:00,71.0,48.0,30.15,NE,53,3.0,11.0,44,0.00,,,0.00,,2013-08-03 21:22:00,
2013-08-03 16:32:00,73.0,47.0,30.14,NNW,327,4.0,8.0,40,0.00,,,0.00,,2013-08-03 21:32:00,
2013-08-03 16:42:00,72.0,48.0,30.14,ENE,76,6.0,10.0,42,0.00,,,0.00,,2013-08-03 21:42:00,
2013-08-03 16:52:00,72.0,48.0,30.14,ENE,76,6.0,10.0,42,0.00,,,0.00,,2013-08-03 21:52:00,
2013-08-03 17:02:00,73.0,49.0,30.14,NNW,348,4.0,8.0,42,0.00,,,0.00,,2013-08-03 22:02:00,
2013-08-03 17:12:00,74.0,49.0,30.14,NE,42,4.0,7.0,42,0.00,,,0.00,,2013-08-03 22:12:00,
2013-08-03 17:22:00,74.0,49.0,30.14,NE,42,4.0,7.0,42,0.00,,,0.00,,2013-08-03 22:22:00,
2013-08-03 17:33:00,73.0,47.0,30.14,North,5,5.0,11.0,40,0.00,,,0.00,,2013-08-03 22:33:00,
2013-08-03 17:43:00,73.0,48.0,30.14,NNE,30,6.0,8.0,41,0.00,,,0.00,,2013-08-03 22:43:00,
2013-08-03 17:52:00,73.0,48.0,30.14,NNE,30,6.0,8.0,41,0.00,,,0.00,,2013-08-03 22:52:00,
2013-08-03 18:02:00,74.0,49.0,30.13,North,359,1.0,7.0,42,0.00,,,0.00,,2013-08-03 23:02:00,
2013-08-03 18:12:00,74.0,47.0,30.13,NNE,20,5.0,8.0,39,0.00,,,0.00,,2013-08-03 23:12:00,
2013-08-03 18:22:00,74.0,47.0,30.13,NNE,20,5.0,8.0,39,0.00,,,0.00,,2013-08-03 23:22:00,
2013-08-03 18:32:00,73.0,47.0,30.13,NE,37,5.0,9.0,40,0.00,,,0.00,,2013-08-03 23:32:00,
2013-08-03 18:42:00,73.0,48.0,30.13,ENE,62,5.0,11.0,41,0.00,,,0.00,,2013-08-03 23:42:00,
2013-08-03 18:52:00,73.0,48.0,30.13,ENE,62,5.0,11.0,41,0.00,,,0.00,,2013-08-03 23:52:00,
2013-08-03 19:02:00,73.0,50.0,30.13,ENE,66,3.0,7.0,44,0.00,,,0.00,,2013-08-04 00:02:00,
2013-08-03 19:12:00,73.0,49.0,30.13,NNW,335,1.0,5.0,43,0.00,,,0.00,,2013-08-04 00:12:00,
2013-08-03 19:22:00,73.0,49.0,30.13,NNW,335,1.0,5.0,43,0.00,,,0.00,,2013-08-04 00:22:00,
2013-08-03 19:32:00,72.0,49.0,30.13,ENE,68,1.0,6.0,45,0.00,,,0.00,,2013-08-04 00:32:00,
2013-08-03 19:42:00,72.0,49.0,30.13,ENE,68,1.0,6.0,45,0.00,,,0.00,,2013-08-04 00:42:00,
2013-08-03 19:52:00,72.0,49.0,30.13,ENE,68,1.0,6.0,45,0.00,,,0.00,,2013-08-04 00:52:00,
2013-08-03 20:02:00,72.0,49.0,30.13,ENE,68,1.0,6.0,45,0.00,,,0.00,,2013-08-04 01:02:00,
2013-08-03 20:12:00,71.0,51.0,30.12,ENE,61,1.0,4.0,49,0.00,,,0.00,,2013-08-04 01:12:00,
2013-08-03 20:22:00,71.0,51.0,30.12,ENE,61,1.0,4.0,49,0.00,,,0.00,,2013-08-04 01:22:00,
2013-08-03 20:32:00,71.0,51.0,30.12,ENE,68,1.0,3.0,50,0.00,,,0.00,,2013-08-04 01:32:00,
2013-08-03 20:42:00,68.0,50.0,30.12,ENE,72,0.0,2.0,52,0.00,,,0.00,,2013-08-04 01:42:00,
2013-08-03 20:52:00,68.0,50.0,30.12,ENE,72,0.0,2.0,52,0.00,,,0.00,,2013-08-04 01:52:00,
2013-08-03 21:02:00,68.0,50.0,30.12,ENE,72,0.0,2.0,52,0.00,,,0.00,,2013-08-04 02:02:00,
2013-08-03 21:12:00,68.0,50.0,30.12,ENE,72,0.0,2.0,52,0.00,,,0.00,,2013-08-04 02:12:00,
2013-08-03 21:22:00,67.0,49.0,30.12,ENE,71,0.0,2.0,53,0.00,,,0.00,,2013-08-04 02:22:00,
2013-08-03 21:32:00,67.0,49.0,30.12,ENE,71,0.0,2.0,53,0.00,,,0.00,,2013-08-04 02:32:00,
2013-08-03 21:42:00,67.0,49.0,30.12,ENE,71,0.0,2.0,53,0.00,,,0.00,,2013-08-04 02:42:00,
2013-08-03 21:52:00,62.0,49.0,30.13,ENE,78,0.0,0.0,63,0.00,,,0.00,,2013-08-04 02:52:00,
2013-08-03 22:02:00,61.0,49.0,30.13,ENE,77,0.0,0.0,65,0.00,,,0.00,,2013-08-04 03:02:00,
2013-08-03 22:11:00,61.0,49.0,30.13,ENE,77,0.0,0.0,65,0.00,,,0.00,,2013-08-04 03:11:00,
2013-08-03 22:22:00,61.0,49.0,30.13,ENE,77,0.0,0.0,65,0.00,,,0.00,,2013-08-04 03:22:00,
2013-08-03 22:32:00,59.0,49.0,30.14,ENE,77,0.0,0.0,70,0.00,,,0.00,,2013-08-04 03:32:00,
2013-08-03 22:42:00,59.0,49.0,30.14,ENE,77,0.0,0.0,70,0.00,,,0.00,,2013-08-04 03:42:00,
2013-08-03 22:52:00,59.0,49.0,30.14,ENE,77,0.0,0.0,70,0.00,,,0.00,,2013-08-04 03:52:00,
2013-08-03 23:02:00,59.0,49.0,30.14,ENE,77,0.0,0.0,70,0.00,,,0.00,,2013-08-04 04:02:00,
2013-08-03 23:12:00,59.0,49.0,30.14,ENE,77,0.0,0.0,70,0.00,,,0.00,,2013-08-04 04:12:00,
2013-08-03 23:32:00,55.0,48.0,30.15,SSE,166,0.0,1.0,78,0.00,,,0.00,,2013-08-04 04:32:00,
2013-08-03 23:42:00,55.0,48.0,30.15,SSE,166,0.0,1.0,78,0.00,,,0.00,,2013-08-04 04:42:00,
2013-08-03 23:52:00,55.0,48.0,30.15,SSE,166,0.0,1.0,78,0.00,,,0.00,,2013-08-04 04:52:00,